GW7054 Weather Reports


time (UTC)temp
F
wind
direction
speed
knots
gust
knots
rain 1hr
in
rain 24hr
in
rain mn
in
humidity
%
barometer
mb
20260506222527 86 171 1.7 2.6 0.00 0.00 0.00 58 1016.8
20260506222023 86 198 1.7 2.6 0.00 0.00 0.00 57 1016.7
20260506221521 88 311 1.7 1.7 0.00 0.00 0.00 56 1016.7
20260506221019 88 251 3.5 4.3 0.00 0.00 0.00 55 1016.7
20260506220514 88 257 1.7 1.7 0.00 0.00 0.00 55 1016.7
20260506220010 88 103 0.9 0.9 0.00 0.00 0.00 55 1016.6
20260506215507 88 302 3.5 5.2 0.00 0.00 0.00 54 1016.6
20260506215003 88 294 5.2 7.0 0.00 0.00 0.00 54 1016.3
20260506214500 88 163 3.5 6.1 0.00 0.00 0.00 54 1016.6
20260506213957 89 301 4.3 5.2 0.00 0.00 0.00 52 1016.4
20260506213455 89 280 0.9 1.7 0.00 0.00 0.00 53 1016.3
20260506212952 90 140 7.0 9.6 0.00 0.00 0.00 51 1016.3
20260506212448 90 283 6.1 7.8 0.00 0.00 0.00 52 1016.4
20260506211943 90 33 4.3 7.0 0.00 0.00 0.00 53 1016.4
20260506211439 90 174 2.6 5.2 0.00 0.00 0.00 53 1016.4
20260506210936 91 177 1.7 1.7 0.00 0.00 0.00 52 1016.5
20260506210433 91 232 1.7 2.6 0.00 0.00 0.00 53 1016.5
20260506205930 91 167 5.2 7.8 0.00 0.00 0.00 52 1016.5
20260506205426 91 114 0.9 1.7 0.00 0.00 0.00 52 1016.4
20260506204922 92 189 6.1 7.8 0.00 0.00 0.00 51 1016.5
20260506204420 92 179 1.7 2.6 0.00 0.00 0.00 50 1016.4
20260506203918 92 195 4.3 5.2 0.00 0.00 0.00 48 1016.6
20260506203414 92 125 3.5 4.3 0.00 0.00 0.00 48 1016.6
20260506202911 93 184 1.7 1.7 0.00 0.00 0.00 50 1016.7
20260506202409 93 83 0.9 0.9 0.00 0.00 0.00 50 1016.5
20260506201905 93 102 0.0 0.9 0.00 0.00 0.00 50 1016.7
20260506201403 92 314 4.3 6.1 0.00 0.00 0.00 49 1016.6
20260506200859 93 264 2.6 2.6 0.00 0.00 0.00 47 1016.8
20260506200355 93 124 0.9 1.7 0.00 0.00 0.00 48 1016.8
20260506195851 93 68 2.6 4.3 0.00 0.00 0.00 47 1016.9
20260506195349 93 113 0.0 0.9 0.00 0.00 0.00 47 1016.7
20260506194846 92 296 3.5 5.2 0.00 0.00 0.00 47 1016.9
20260506194342 93 85 1.7 1.7 0.00 0.00 0.00 48 1017.2
20260506193840 92 271 3.5 5.2 0.00 0.00 0.00 48 1017.0
20260506193336 92 59 0.9 0.9 0.00 0.00 0.00 50 1017.0
20260506192833 92 312 0.9 1.7 0.00 0.00 0.00 49 1017.0
20260506192330 91 108 2.6 4.3 0.00 0.00 0.00 49 1017.1
20260506191827 90 150 4.3 5.2 0.00 0.00 0.00 54 1017.1
20260506191323 92 140 1.7 1.7 0.00 0.00 0.00 52 1017.2
20260506190820 92 87 0.9 1.7 0.00 0.00 0.00 52 1017.2
20260506190316 92 210 3.5 4.3 0.00 0.00 0.00 51 1017.1
20260506185814 91 77 0.0 0.9 0.00 0.00 0.00 54 1017.4
20260506185310 91 150 2.6 4.3 0.00 0.00 0.00 53 1017.7
20260506184807 91 302 0.9 1.7 0.00 0.00 0.00 55 1017.5
20260506184305 92 263 3.5 4.3 0.00 0.00 0.00 53 1018.0
20260506183802 92 278 2.6 4.3 0.00 0.00 0.00 52 1017.7
20260506183257 91 246 2.6 2.6 0.00 0.00 0.00 54 1017.6
20260506182754 91 100 0.9 1.7 0.00 0.00 0.00 54 1017.9
20260506182251 91 79 1.7 1.7 0.00 0.00 0.00 56 1017.7
20260506181749 90 264 3.5 5.2 0.00 0.00 0.00 55 1017.9
20260506181247 89 248 3.5 5.2 0.00 0.00 0.00 57 1018.1
20260506180744 87 57 1.7 1.7 0.00 0.00 0.00 61 1018.1
20260506180239 88 109 1.7 2.6 0.00 0.00 0.00 61 1018.0
20260506175736 89 82 0.0 0.0 0.00 0.00 0.00 58 1018.2
20260506175233 89 95 0.9 0.9 0.00 0.00 0.00 58 1018.1
20260506174730 89 29 1.7 1.7 0.00 0.00 0.00 57 1018.3
20260506174227 90 140 3.5 4.3 0.00 0.00 0.00 57 1018.4
20260506173725 89 158 2.6 4.3 0.00 0.00 0.00 58 1018.5
20260506173221 88 278 1.7 1.7 0.00 0.00 0.00 58 1018.5
20260506172718 89 317 8.7 12.2 0.00 0.00 0.00 56 1018.5
20260506172215 90 179 3.5 5.2 0.00 0.00 0.00 57 1018.7
20260506171713 87 113 1.7 1.7 0.00 0.00 0.00 63 1018.5
20260506171210 87 196 3.5 4.3 0.00 0.00 0.00 60 1018.6
20260506170707 88 191 0.9 0.9 0.00 0.00 0.00 60 1018.7
20260506170204 85 198 1.7 2.6 0.00 0.00 0.00 64 1018.7
20260506165702 86 122 2.6 4.3 0.00 0.00 0.00 63 1018.8
20260506165158 88 349 1.7 2.6 0.00 0.00 0.00 60 1018.9
20260506164655 87 86 2.6 2.6 0.00 0.00 0.00 63 1018.6
20260506164153 85 192 3.5 4.3 0.00 0.00 0.00 63 1019.0
20260506163649 87 224 4.3 6.1 0.00 0.00 0.00 61 1019.0
20260506163144 86 154 2.6 4.3 0.00 0.00 0.00 62 1018.9
20260506162641 86 214 3.5 4.3 0.00 0.00 0.00 65 1019.0
20260506162138 85 163 3.5 4.3 0.00 0.00 0.00 67 1018.9
20260506161635 86 178 1.7 2.6 0.00 0.00 0.00 64 1018.7
20260506161132 85 88 3.5 6.1 0.00 0.00 0.00 67 1019.0
20260506160630 84 188 2.6 4.3 0.00 0.00 0.00 66 1019.0
20260506160126 83 172 6.1 7.0 0.00 0.00 0.00 68 1019.1
20260506155626 84 113 2.6 4.3 0.00 0.00 0.00 67 1019.0
20260506155122 84 190 5.2 7.0 0.00 0.00 0.00 68 1018.9
20260506153224 83 219 2.6 4.3 0.00 0.00 0.00 70 1019.2
20260506152721 83 151 6.1 7.0 0.00 0.00 0.00 69 1019.1
20260506152218 81 139 6.1 7.0 0.00 0.00 0.00 72 1019.2
20260506151717 81 205 3.5 6.1 0.00 0.00 0.00 73 1019.1
20260506151213 81 137 6.1 7.0 0.00 0.00 0.00 72 1018.9
20260506150709 81 158 3.5 4.3 0.00 0.00 0.00 73 1019.0
20260506150207 82 120 3.5 4.3 0.00 0.00 0.00 73 1019.1
20260506145704 80 187 4.3 6.1 0.00 0.00 0.00 74 1018.9
20260506145200 80 128 5.2 6.1 0.00 0.00 0.00 75 1019.0
20260506144658 80 131 3.5 5.2 0.00 0.00 0.00 74 1019.0
20260506144155 80 231 2.6 4.3 0.00 0.00 0.00 75 1018.9
20260506143653 80 263 1.7 1.7 0.00 0.00 0.00 74 1019.0
20260506143150 80 246 3.5 4.3 0.00 0.00 0.00 76 1019.0
20260506142648 78 198 7.8 11.3 0.00 0.00 0.00 77 1018.9
20260506142146 79 205 1.7 2.6 0.00 0.00 0.00 76 1018.9
20260506141643 79 122 0.9 1.7 0.00 0.00 0.00 76 1018.8
20260506141141 78 212 4.3 5.2 0.00 0.00 0.00 77 1018.9
20260506140638 78 178 3.5 5.2 0.00 0.00 0.00 78 1018.7
20260506140136 77 204 2.6 4.3 0.00 0.00 0.00 79 1018.6
20260506135633 77 169 4.3 5.2 0.00 0.00 0.00 79 1018.6
20260506135129 77 191 7.8 8.7 0.00 0.00 0.00 80 1018.6
20260506134626 76 200 2.6 4.3 0.00 0.00 0.00 81 1018.8
20260506134121 76 146 4.3 6.1 0.00 0.00 0.00 80 1018.9
20260506133619 76 142 4.3 6.1 0.00 0.00 0.00 80 1018.7
20260506133116 75 126 1.7 1.7 0.00 0.00 0.00 81 1018.6
20260506132613 76 156 4.3 7.0 0.00 0.00 0.00 80 1018.8
20260506132110 75 102 0.0 0.9 0.00 0.00 0.00 80 1018.6
20260506131608 75 171 3.5 5.2 0.00 0.00 0.00 79 1018.7
20260506131103 75 170 5.2 6.1 0.00 0.00 0.00 79 1018.6
20260506130601 75 117 1.7 2.6 0.00 0.00 0.00 79 1018.7
20260506130058 74 192 3.5 7.0 0.00 0.00 0.00 79 1018.5
20260506125556 73 102 1.7 1.7 0.00 0.00 0.00 80 1018.4
20260506125054 73 104 2.6 2.6 0.00 0.00 0.00 80 1018.5
20260506124551 72 190 2.6 2.6 0.00 0.00 0.00 81 1018.5
20260506124049 71 124 0.9 0.9 0.00 0.00 0.00 82 1018.4
20260506123546 70 124 2.6 2.6 0.00 0.00 0.00 82 1018.4
20260506123045 70 136 3.5 4.3 0.00 0.00 0.00 83 1018.6
20260506122541 69 188 4.3 5.2 0.00 0.00 0.00 84 1018.4
20260506122039 69 162 4.3 4.3 0.00 0.00 0.00 85 1018.3
20260506121536 68 115 1.7 1.7 0.00 0.00 0.00 86 1018.3
20260506121032 67 131 1.7 1.7 0.00 0.00 0.00 87 1018.2
20260506120530 66 133 1.7 1.7 0.00 0.00 0.00 88 1018.2
20260506120028 65 104 0.9 0.9 0.00 0.00 0.00 89 1018.1
20260506115526 64 102 0.0 0.9 0.00 0.00 0.00 90 1017.9
20260506115024 63 98 0.9 0.9 0.00 0.00 0.00 93 1018.1
20260506114520 62 90 0.0 0.0 0.00 0.00 0.00 95 1018.0
20260506114019 62 93 0.0 0.0 0.00 0.00 0.00 96 1017.9
20260506113517 61 89 0.0 0.0 0.00 0.00 0.00 97 1017.7
20260506113014 61 92 0.0 0.0 0.00 0.00 0.00 97 1018.0
20260506112510 60 91 0.0 0.0 0.00 0.00 0.00 98 1017.8
20260506112008 60 88 0.0 0.0 0.00 0.00 0.00 98 1018.0
20260506111506 59 90 0.0 0.0 0.00 0.00 0.00 99 1017.8
20260506111002 59 91 0.0 0.0 0.00 0.00 0.00 99 1017.7
20260506110500 59 92 0.0 0.0 0.00 0.00 0.00 99 1017.7
20260506105956 59 88 0.0 0.0 0.00 0.00 0.00 99 1017.8
20260506105453 59 92 0.0 0.0 0.00 0.00 0.00 99 1017.7
20260506104951 58 91 0.0 0.0 0.00 0.00 0.00 99 1017.7
20260506104448 58 91 0.0 0.0 0.00 0.00 0.00 99 1017.4
20260506103947 58 92 0.0 0.0 0.00 0.00 0.00 99 1017.5
20260506103443 58 91 0.0 0.0 0.00 0.00 0.00 99 1017.5
20260506102940 58 92 0.0 0.0 0.00 0.00 0.00 99 1017.6
20260506102438 58 92 0.0 0.0 0.00 0.00 0.00 99 1017.5
20260506101935 58 93 0.0 0.0 0.00 0.00 0.00 99 1017.3
20260506101432 58 91 0.0 0.0 0.00 0.00 0.00 99 1017.6
20260506100929 58 88 0.0 0.0 0.00 0.00 0.00 99 1017.7
20260506100427 59 89 0.0 0.0 0.00 0.00 0.00 99 1017.4
20260506095925 58 92 0.0 0.0 0.00 0.00 0.00 99 1017.5
20260506095423 59 88 0.0 0.0 0.00 0.00 0.00 98 1017.7
20260506094919 59 88 0.0 0.0 0.00 0.00 0.00 98 1017.6
20260506094418 59 88 0.0 0.0 0.00 0.00 0.00 98 1017.4
20260506093915 59 88 0.0 0.0 0.00 0.00 0.00 97 1017.5
20260506093413 59 88 0.0 0.0 0.00 0.00 0.00 97 1017.2
20260506092910 59 88 0.0 0.0 0.00 0.00 0.00 97 1017.5
20260506092408 59 92 0.0 0.0 0.00 0.00 0.00 97 1017.1
20260506091904 59 88 0.0 0.0 0.00 0.00 0.00 97 1017.3
20260506091403 59 88 0.0 0.0 0.00 0.00 0.00 97 1017.5
20260506090859 59 88 0.0 0.0 0.00 0.00 0.00 96 1017.4
20260506090357 59 88 0.0 0.0 0.00 0.00 0.00 96 1017.4
20260506085853 59 88 0.0 0.0 0.00 0.00 0.00 96 1017.4
20260506085350 60 88 0.0 0.0 0.00 0.00 0.00 96 1017.4
20260506084847 59 89 0.0 0.0 0.00 0.00 0.00 96 1017.2
20260506084343 60 89 0.0 0.0 0.00 0.00 0.00 96 1017.6
20260506083840 60 88 0.0 0.0 0.00 0.00 0.00 95 1017.5
20260506083338 60 88 0.0 0.0 0.00 0.00 0.00 95 1017.2
20260506082835 60 88 0.0 0.0 0.00 0.00 0.00 95 1017.2
20260506082331 60 88 0.0 0.0 0.00 0.00 0.00 94 1017.1
20260506081827 60 88 0.0 0.0 0.00 0.00 0.00 94 1017.5
20260506081326 60 88 0.0 0.0 0.00 0.00 0.00 93 1017.4
20260506080823 60 88 0.0 0.0 0.00 0.00 0.00 93 1017.6
20260506080319 60 88 0.0 0.0 0.00 0.00 0.00 93 1017.3
20260506073304 62 88 0.0 0.0 0.00 0.00 0.00 89 1017.1
20260506072800 62 90 0.0 0.0 0.00 0.00 0.00 89 1017.1
20260506072258 62 88 0.0 0.0 0.00 0.00 0.00 89 1017.0
20260506071755 62 88 0.0 0.0 0.00 0.00 0.00 89 1017.4
20260506071253 62 90 0.0 0.0 0.00 0.00 0.00 88 1017.2
20260506070750 62 90 0.0 0.0 0.00 0.00 0.00 88 1017.2
20260506070247 62 93 0.0 0.0 0.00 0.00 0.00 87 1017.3
20260506062224 62 92 0.0 0.9 0.00 0.00 0.00 87 1017.7
20260506061719 61 85 0.0 0.0 0.00 0.00 0.00 89 1017.5
20260506061217 61 91 0.0 0.0 0.00 0.00 0.00 89 1017.7
20260506060716 61 93 0.0 0.0 0.00 0.00 0.00 89 1017.7
20260506060212 62 91 0.0 0.0 0.00 0.00 0.00 89 1017.8
20260506051144 62 91 0.0 0.0 0.00 0.00 0.00 88 1017.9
20260506050643 63 88 0.0 0.0 0.00 0.00 0.00 87 1018.1
20260506050139 63 87 0.0 0.0 0.00 0.00 0.00 86 1018.4
20260506045132 63 88 0.0 0.0 0.00 0.00 0.00 87 1018.3
20260506044631 63 91 0.0 0.0 0.00 0.00 0.00 87 1018.4
20260506044127 63 91 0.0 0.0 0.00 0.00 0.00 87 1018.5
20260506043624 63 94 0.0 0.0 0.00 0.00 0.00 88 1018.6
20260506043123 63 91 0.0 0.0 0.00 0.00 0.00 88 1018.5
20260506042621 64 88 0.0 0.0 0.00 0.00 0.00 86 1018.6
20260506042119 64 87 0.0 0.0 0.00 0.00 0.00 86 1018.4
20260506041618 64 87 0.0 0.0 0.00 0.00 0.00 87 1018.5
20260506041114 64 91 0.0 0.0 0.00 0.00 0.00 87 1018.5
20260506040612 64 89 0.0 0.0 0.00 0.00 0.00 86 1018.6
20260506040108 64 88 0.0 0.0 0.00 0.00 0.00 86 1018.4
20260506035605 65 88 0.0 0.0 0.00 0.00 0.00 87 1018.6
20260506035102 65 88 0.0 0.0 0.00 0.00 0.00 86 1018.4
20260506034559 65 89 0.0 0.0 0.00 0.00 0.00 86 1018.4
20260506034056 65 91 0.0 0.0 0.00 0.00 0.00 87 1018.5
20260506033553 65 91 0.0 0.0 0.00 0.00 0.00 87 1018.5
20260506033049 66 91 0.0 0.0 0.00 0.00 0.00 87 1018.6
20260506032547 66 91 0.0 0.0 0.00 0.00 0.00 87 1018.5
20260506032044 66 88 0.0 0.0 0.00 0.00 0.00 86 1018.7
20260506031542 66 88 0.0 0.0 0.00 0.00 0.00 85 1018.4
20260506031038 67 87 0.0 0.0 0.00 0.00 0.00 85 1018.6
20260506030536 67 87 0.0 0.0 0.00 0.00 0.00 86 1018.4
20260506030033 67 83 0.0 0.0 0.00 0.00 0.00 86 1018.3
20260506025530 67 88 0.0 0.0 0.00 0.00 0.00 85 1018.4
20260506025026 67 96 0.0 0.0 0.00 0.00 0.00 85 1018.3
20260506024523 67 98 0.0 0.0 0.00 0.00 0.00 84 1018.3
20260506024020 67 87 0.0 0.0 0.00 0.00 0.00 84 1018.1
20260506023516 68 88 0.0 0.0 0.00 0.00 0.00 84 1018.0
20260506023014 68 87 0.0 0.0 0.00 0.00 0.00 83 1018.2
20260506022511 68 96 0.0 0.0 0.00 0.00 0.00 82 1018.0
20260506022009 68 88 0.0 0.0 0.00 0.00 0.00 82 1017.7
20260506021506 69 78 0.0 0.9 0.00 0.00 0.00 81 1017.7
20260506021003 70 74 0.0 0.0 0.00 0.00 0.00 80 1017.8
20260506020500 70 75 0.9 0.9 0.00 0.00 0.00 79 1017.9
20260506015957 69 66 0.0 0.9 0.00 0.00 0.00 79 1017.7
20260506015455 69 109 0.0 0.0 0.00 0.00 0.00 81 1017.3
20260506014951 69 93 0.0 0.0 0.00 0.00 0.00 81 1017.2
20260506014448 69 78 0.0 0.0 0.00 0.00 0.00 80 1017.1
20260506013944 69 89 0.0 0.0 0.00 0.00 0.00 81 1017.1
20260506013443 69 89 0.0 0.0 0.00 0.00 0.00 81 1016.7
20260506012939 69 92 0.0 0.0 0.00 0.00 0.00 81 1016.8
20260506012436 69 95 0.0 0.0 0.00 0.00 0.00 80 1016.9
20260506011932 70 96 0.0 0.0 0.00 0.00 0.00 79 1016.9
20260506011430 70 93 0.0 0.0 0.00 0.00 0.00 78 1016.9
20260506010926 70 93 0.0 0.0 0.00 0.00 0.00 78 1016.8
20260506010426 71 90 0.0 0.0 0.00 0.00 0.00 77 1016.5
20260506005921 71 94 0.0 0.0 0.00 0.00 0.00 76 1016.7
20260506005419 72 96 0.0 0.0 0.00 0.00 0.00 74 1016.4
20260506004914 73 92 0.0 0.0 0.00 0.00 0.00 73 1016.5
20260506004413 73 100 0.0 0.0 0.00 0.00 0.00 72 1016.6
20260506003908 74 92 0.0 0.0 0.00 0.00 0.00 70 1016.7
20260506003404 75 57 0.0 0.0 0.00 0.00 0.00 69 1016.7
20260506002901 75 108 0.0 0.9 0.00 0.00 0.00 69 1016.8
20260506002357 76 72 0.9 1.7 0.00 0.00 0.00 67 1016.7
20260506001853 76 122 0.0 0.9 0.00 0.00 0.00 67 1016.8
20260506001350 77 37 1.7 1.7 0.00 0.00 0.00 66 1016.7
20260506000847 77 95 0.9 1.7 0.00 0.00 0.00 65 1016.4
20260506000346 78 100 0.0 0.0 0.00 0.00 0.00 65 1016.6
20260505235841 78 60 1.7 2.6 0.00 0.00 0.00 64 1016.3
20260505235339 79 233 0.9 1.7 0.00 0.00 0.00 63 1016.5
20260505234836 79 112 0.9 0.9 0.00 0.00 0.00 63 1016.4
20260505234334 80 154 1.7 1.7 0.00 0.00 0.00 62 1016.2
20260505233830 80 269 1.7 2.6 0.00 0.00 0.00 62 1016.3
20260505233328 80 283 0.9 1.7 0.00 0.00 0.00 61 1016.2
20260505232825 80 155 1.7 2.6 0.00 0.00 0.00 61 1016.2
20260505232323 81 247 2.6 4.3 0.00 0.00 0.00 60 1016.3
20260505231820 82 120 1.7 2.6 0.00 0.00 0.00 59 1016.1
20260505231318 82 82 0.9 0.9 0.00 0.00 0.00 58 1016.1
20260505230816 82 206 0.9 0.9 0.00 0.00 0.00 57 1016.4
20260505230312 83 99 1.7 2.6 0.00 0.00 0.00 57 1016.2
20260505225809 83 86 0.0 0.0 0.00 0.00 0.00 57 1015.9
20260505225306 84 145 0.9 0.9 0.00 0.00 0.00 56 1015.9
20260505224801 84 346 2.6 2.6 0.00 0.00 0.00 55 1016.1
20260505224259 84 285 2.6 4.3 0.00 0.00 0.00 54 1016.0
20260505223756 85 126 2.6 2.6 0.00 0.00 0.00 54 1016.0
20260505223253 86 262 2.6 5.2 0.00 0.00 0.00 53 1015.8